St. Paul Lake Elmo, MN

12:27 PM CST on December 13, 2017 (GMT -0600)
St. Paul Lake Elmo

Weather History for K21D - February, 2014

Change the Weather History Date:

Thursday, February 20, 2014

  Actual Average (KSTP) Record (KSTP)
Temperature  
Mean Temperature 29 °F -  
Max Temperature 35 °F 30 °F 54 °F (2017)
Min Temperature 21 °F 16 °F -9 °F (2008)
Degree Days  
Heating Degree Days 36    
Moisture  
Dew Point 30 °F    
Average Humidity 91    
Maximum Humidity 100    
Minimum Humidity 81    
Precipitation  
Precipitation 0.21 in - - ()
Sea Level Pressure  
Sea Level Pressure 29.47 in    
Wind  
Wind Speed 9 mph (ENE)    
Max Wind Speed 21 mph    
Max Gust Speed 32 mph    
Visibility 5 miles    
Events Rain , Snow    
Averages and records for this station are not official NWS values.
T = Trace of Precipitation, MM = Missing Value Source: NWS Daily Summary

Daily Weather History Graph

Daily Weather History Graph

Search for Another Location

Airport or City:

Trip Planner

Search our weather history database for the weather conditions in past years. The results will help you decide how hot, cold, wet, or windy it might be!

Date:

Astronomy

Feb. 20, 2014 Rise Set
Actual Time 7:04 AM CST 5:46 PM CST
Civil Twilight 6:34 AM CST 6:16 PM CST
Nautical Twilight 6:00 AM CST 6:50 PM CST
Astronomical Twilight 5:26 AM CST 7:24 PM CST
Moon 11:58 PM CST (2/20) 9:31 AM CST (2/20)
Length of Visible Light 11h 41m
Length of Day
10h 42m
Waning Gibbous, 70% of the Moon is Illuminated
Feb 20
Waning Gibbous
Feb 22
Last Quarter
Mar 1
New
Mar 8
First Quarter
Mar 16
Full

Hourly Weather History & Observations

Time (CST) Temp. Windchill Dew Point Humidity Pressure Visibility Wind Dir Wind Speed Gust Speed Precip Events Conditions
12:11 AM 33.8 °F 24.8 °F 30.2 °F 87% 29.70 in 10.0 mi SSE 12.7 mph 17.3 mph N/A   Overcast
12:32 AM 35.6 °F 27.5 °F 30.2 °F 81% 29.71 in 10.0 mi SSE 11.5 mph - N/A   Overcast
12:51 AM 35.6 °F 29.9 °F 30.2 °F 81% 29.71 in 10.0 mi SSE 6.9 mph - N/A   Overcast
1:11 AM 35.6 °F 29.2 °F 30.2 °F 81% 29.70 in 10.0 mi SSE 8.1 mph - N/A   Overcast
1:32 AM 33.8 °F 26.4 °F 28.4 °F 81% 29.69 in 10.0 mi SSE 9.2 mph - N/A   Scattered Clouds
1:51 AM 33.8 °F 25.8 °F 28.4 °F 81% 29.68 in 10.0 mi SE 10.4 mph - N/A   Clear
2:11 AM 33.8 °F 25.3 °F 28.4 °F 81% 29.67 in 10.0 mi SSE 11.5 mph - N/A   Clear
2:31 AM 33.8 °F 27.7 °F 28.4 °F 81% 29.67 in 10.0 mi SE 6.9 mph - N/A   Clear
2:51 AM 33.8 °F 28.6 °F 28.4 °F 81% 29.66 in 10.0 mi SE 5.8 mph - N/A   Mostly Cloudy
3:11 AM 33.8 °F 27.7 °F 28.4 °F 81% 29.65 in 10.0 mi SE 6.9 mph - N/A   Overcast
3:31 AM 33.8 °F 26.4 °F 28.4 °F 81% 29.64 in 10.0 mi SE 9.2 mph - N/A   Overcast
3:51 AM 33.8 °F 27.7 °F 28.4 °F 81% 29.64 in 10.0 mi SSE 6.9 mph - N/A   Overcast
4:11 AM 33.8 °F 26.4 °F 28.4 °F 81% 29.64 in 10.0 mi SSE 9.2 mph - N/A   Mostly Cloudy
4:31 AM 33.8 °F 25.8 °F 28.4 °F 81% 29.64 in 10.0 mi SSE 10.4 mph - N/A   Overcast
4:51 AM 33.8 °F 27.0 °F 28.4 °F 81% 29.64 in 10.0 mi SSE 8.1 mph - N/A   Overcast
5:11 AM 33.8 °F 27.7 °F 28.4 °F 81% 29.63 in 10.0 mi SSE 6.9 mph - N/A   Scattered Clouds
5:31 AM 33.8 °F 28.6 °F 28.4 °F 81% 29.62 in 10.0 mi SE 5.8 mph - N/A   Mostly Cloudy
5:51 AM 33.8 °F 28.6 °F 28.4 °F 81% 29.62 in 10.0 mi SE 5.8 mph - N/A   Mostly Cloudy
6:11 AM 33.8 °F 29.6 °F 28.4 °F 81% 29.62 in 10.0 mi SSE 4.6 mph - N/A   Overcast
6:31 AM 33.8 °F 29.6 °F 28.4 °F 81% 29.61 in 10.0 mi SE 4.6 mph - N/A   Mostly Cloudy
6:51 AM 33.8 °F 28.6 °F 28.4 °F 81% 29.61 in 10.0 mi SSE 5.8 mph - N/A   Mostly Cloudy
7:12 AM 33.8 °F 28.6 °F 30.2 °F 87% 29.60 in 10.0 mi SE 5.8 mph - N/A   Overcast
7:31 AM 35.6 °F 29.2 °F 30.2 °F 81% 29.59 in 10.0 mi SE 8.1 mph - N/A   Overcast
7:51 AM 35.6 °F 32.8 °F 32.0 °F 87% 29.57 in 10.0 mi ESE 3.5 mph - N/A   Overcast
8:12 AM 35.6 °F 29.9 °F 32.0 °F 87% 29.58 in 10.0 mi SE 6.9 mph - N/A   Overcast
8:31 AM 35.6 °F 28.6 °F 32.0 °F 87% 29.59 in 10.0 mi SE 9.2 mph - N/A   Overcast
8:51 AM 35.6 °F 30.7 °F 32.0 °F 87% 29.58 in 10.0 mi SE 5.8 mph - N/A   Overcast
9:12 AM 35.6 °F 29.9 °F 32.0 °F 87% 29.59 in 10.0 mi SE 6.9 mph - N/A   Overcast
9:31 AM 35.6 °F 31.7 °F 32.0 °F 87% 29.58 in 10.0 mi SSE 4.6 mph - N/A   Drizzle
9:51 AM 35.6 °F 31.7 °F 32.0 °F 87% 29.58 in 5.0 mi SE 4.6 mph - N/A   Light Drizzle
10:11 AM 35.6 °F 31.7 °F 32.0 °F 87% 29.57 in 7.0 mi SE 4.6 mph - N/A   Light Drizzle
10:31 AM 35.6 °F 30.7 °F 32.0 °F 87% 29.56 in 5.0 mi SE 5.8 mph - N/A Rain Light Rain
10:51 AM 33.8 °F - 32.0 °F 93% 29.55 in 4.0 mi Calm Calm - N/A   Drizzle
11:11 AM 33.8 °F - 33.8 °F 100% 29.54 in 2.5 mi Calm Calm - N/A   Drizzle
11:31 AM 33.8 °F 29.6 °F 33.8 °F 100% 29.52 in 1.5 mi NNE 4.6 mph - N/A Rain Light Rain
11:52 AM 33.8 °F 28.6 °F 33.8 °F 100% 29.50 in 1.8 mi NE 5.8 mph - N/A   Light Drizzle
12:11 PM 33.8 °F 26.4 °F 33.8 °F 100% 29.47 in 1.8 mi NE 9.2 mph - N/A   Light Drizzle
12:31 PM 33.8 °F 27.7 °F 33.8 °F 100% 29.45 in 2.0 mi NE 6.9 mph - N/A   Light Drizzle
12:52 PM 33.8 °F 25.8 °F 33.8 °F 100% 29.44 in 1.5 mi NE 10.4 mph - N/A   Overcast
1:11 PM 33.8 °F 27.0 °F 33.8 °F 100% 29.43 in 4.0 mi NE 8.1 mph - N/A   Overcast
1:31 PM 33.8 °F 27.0 °F 32.0 °F 93% 29.43 in 1.5 mi ENE 8.1 mph - N/A Snow Light Snow
1:52 PM 33.8 °F - 32.0 °F 93% 29.45 in 1.0 mi Calm Calm - 0.02 in Snow Light Snow
2:11 PM 32.0 °F - 32.0 °F 100% 29.45 in 0.5 mi Calm Calm - 0.02 in Snow Light Snow
2:31 PM 32.0 °F 28.7 °F 32.0 °F 100% 29.42 in 0.2 mi NNW 3.5 mph - 0.05 in Snow Snow
2:52 PM 32.0 °F 27.5 °F 32.0 °F 100% 29.40 in 0.2 mi North 4.6 mph - 0.09 in Snow Snow
3:11 PM 32.0 °F 25.6 °F 32.0 °F 100% 29.38 in 0.5 mi North 6.9 mph - 0.01 in Snow Light Snow
3:31 PM 32.0 °F 25.6 °F 32.0 °F 100% 29.36 in 1.2 mi North 6.9 mph - 0.02 in Snow Light Snow
3:51 PM 32.0 °F 25.6 °F 32.0 °F 100% 29.35 in 1.5 mi North 6.9 mph - 0.02 in Snow Light Snow
4:11 PM 32.0 °F 25.6 °F 32.0 °F 100% 29.35 in 1.2 mi North 6.9 mph - 0.01 in Snow Light Snow
4:31 PM 32.0 °F 25.6 °F 32.0 °F 100% 29.33 in 0.8 mi North 6.9 mph - 0.03 in Snow Light Snow
4:51 PM 32.0 °F 25.6 °F 32.0 °F 100% 29.31 in 0.8 mi North 6.9 mph - 0.04 in Snow Light Snow
5:11 PM 32.0 °F 24.8 °F 32.0 °F 100% 29.30 in 1.2 mi North 8.1 mph - N/A Snow Light Snow
5:31 PM 32.0 °F 24.2 °F 32.0 °F 100% 29.29 in 1.5 mi North 9.2 mph - 0.01 in Snow Light Snow
5:51 PM 32.0 °F 24.2 °F 32.0 °F 100% 29.27 in 2.0 mi North 9.2 mph - 0.02 in Snow Light Snow
6:11 PM 32.0 °F 23.6 °F 32.0 °F 100% 29.27 in 2.0 mi North 10.4 mph - N/A Snow Light Snow
6:31 PM 32.0 °F 24.2 °F 32.0 °F 100% 29.28 in 2.0 mi North 9.2 mph - 0.01 in Snow Light Snow
6:51 PM 32.0 °F 24.2 °F 32.0 °F 100% 29.27 in 2.5 mi NNW 9.2 mph - 0.01 in Snow Light Snow
7:11 PM 32.0 °F 24.2 °F 32.0 °F 100% 29.26 in 2.0 mi North 9.2 mph - 0.01 in Snow Light Snow
7:31 PM 32.0 °F 23.0 °F 32.0 °F 100% 29.25 in 1.8 mi NNW 11.5 mph - 0.01 in Snow Light Snow
7:51 PM 32.0 °F 23.0 °F 32.0 °F 100% 29.25 in 1.8 mi North 11.5 mph 16.1 mph 0.01 in Snow Light Snow
8:11 PM 32.0 °F 22.5 °F 32.0 °F 100% 29.24 in 1.2 mi NNW 12.7 mph - N/A Snow Light Snow
8:31 PM 32.0 °F 23.0 °F 32.0 °F 100% 29.24 in 0.8 mi NNW 11.5 mph - N/A Snow Snow
8:51 PM 32.0 °F 20.8 °F 30.2 °F 93% 29.24 in 0.8 mi NW 17.3 mph 21.9 mph N/A Snow Snow
9:11 PM 30.2 °F 20.8 °F 30.2 °F 100% 29.23 in 1.0 mi NW 11.5 mph 19.6 mph N/A Snow Snow
9:31 PM 32.0 °F 21.6 °F 30.2 °F 93% 29.23 in 0.8 mi NW 15.0 mph 19.6 mph N/A Snow Snow
9:51 PM 32.0 °F 22.1 °F 30.2 °F 93% 29.23 in 0.8 mi NW 13.8 mph 19.6 mph N/A Snow Snow
10:11 PM 32.0 °F 20.1 °F 30.2 °F 93% 29.23 in 1.0 mi NW 19.6 mph 29.9 mph N/A Snow Snow
10:31 PM 28.4 °F 17.5 °F 26.6 °F 93% 29.23 in 1.0 mi WNW 13.8 mph 32.2 mph N/A Snow Light Snow
10:52 PM 26.6 °F 12.7 °F 23.0 °F 86% 29.24 in 1.2 mi WNW 20.7 mph 27.6 mph N/A Snow Light Snow
11:11 PM 24.8 °F 11.5 °F 21.2 °F 86% 29.24 in 1.0 mi NW 17.3 mph 27.6 mph N/A Snow Light Snow
11:31 PM 23.0 °F 8.7 °F 19.4 °F 86% 29.25 in 1.2 mi NW 18.4 mph 27.6 mph N/A Snow Light Snow
11:51 PM 21.2 °F 6.0 °F 17.6 °F 86% 29.24 in 1.8 mi WNW 19.6 mph 31.1 mph N/A Snow Light Snow